This is the latest recevied weather packets stored in our database for station/object OM5AST-13. If no packets are shown the sender has not sent any weather packets the latest 10 day(s).
| Time | Temp. | Humidity | Pressure | Rain* | Wind** | Luminosity | Snow |
|---|---|---|---|---|---|---|---|
| 1777967035 | 20° C | 47% | - | 0 mm | - | 0 W/m² | - |
| 1777965836 | 18.89° C | 48% | - | 0 mm | - | 0 W/m² | - |
| 1777964635 | 18.33° C | 51% | - | 0 mm | - | 0 W/m² | - |
| 1777963435 | 17.22° C | 51% | - | 0 mm | - | 0 W/m² | - |
| 1777962236 | 16.11° C | 53% | - | 0 mm | - | 0 W/m² | - |
| 1777961036 | 15.56° C | 52% | - | 0 mm | - | 0 W/m² | - |
| 1777959836 | 15° C | 52% | - | 0 mm | - | 0 W/m² | - |
| 1777958635 | 15° C | 51% | - | 0 mm | - | 0 W/m² | - |
| 1777957436 | 14.44° C | 51% | - | 0 mm | - | 0 W/m² | - |
| 1777956235 | 14.44° C | 51% | - | 0 mm | - | 0 W/m² | - |
| 1777955035 | 13.89° C | 52% | - | 0 mm | - | 0 W/m² | - |
| 1777953835 | 13.89° C | 52% | - | 0 mm | - | 0 W/m² | - |
| 1777952636 | 13.33° C | 52% | - | 0 mm | - | 0 W/m² | - |
| 1777951435 | 13.89° C | 50% | - | 0 mm | - | 0 W/m² | - |
| 1777950235 | 13.89° C | 49% | - | 0 mm | - | 0 W/m² | - |
| 1777949035 | 13.89° C | 48% | - | 0 mm | - | 0 W/m² | - |
| 1777947835 | 14.44° C | 49% | - | 0 mm | - | 0 W/m² | - |
| 1777946635 | 14.44° C | 49% | - | 0 mm | - | 0 W/m² | - |
| 1777945435 | 14.44° C | 48% | - | 0 mm | - | 0 W/m² | - |
| 1777944235 | 15° C | 48% | - | 0 mm | - | 0 W/m² | - |
| 1777943036 | 15° C | 48% | - | 0 mm | - | 0 W/m² | - |
| 1777941835 | 15° C | 49% | - | 0 mm | - | 0 W/m² | - |
| 1777940635 | 15.56° C | 49% | - | 0 mm | - | 0 W/m² | - |
| 1777939435 | 15.56° C | 49% | - | 0 mm | - | 0 W/m² | - |
| 1777938235 | 16.11° C | 48% | - | 0 mm | - | 0 W/m² | - |
* Rain latest hour (hover to see other rain measurements)
** Current wind speed in m/s (hover to see current wind gust speed)